FW0865 Weather Reports


Display with metric or nautical units.
time (UTC)temp
F
wind
direction
speed
MPH
gust
MPH
rain 1hr
in
rain 24hr
in
rain mn
in
humidity
%
barometer
mb
20190324214647 78 34 5.0 9.0 0.00 0.00 0.00 48 1021.4
20190324213140 79 81 2.0 6.0 0.00 0.00 0.00 49 1021.4
20190324211625 79 189 7.0 11.0 0.00 0.00 0.00 48 1021.4
20190324210140 79 181 2.0 9.0 0.00 0.00 0.00 48 1021.4
20190324204753 79 119 5.0 14.0 0.00 0.00 0.00 50 1021.4
20190324203159 79 122 4.0 11.0 0.00 0.00 0.00 50 1021.7
20190324201629 79 161 7.0 11.0 0.00 0.00 0.00 49 1021.8
20190324200059 79 129 4.0 16.0 0.00 0.00 0.00 51 1021.9
20190324194610 79 55 4.0 8.0 0.00 0.00 0.00 49 1022.1
20190324193050 78 90 5.0 12.0 0.00 0.00 0.00 52 1022.2
20190324191603 78 103 4.0 13.0 0.00 0.00 0.00 51 1022.2
20190324190049 77 82 5.0 10.0 0.00 0.00 0.00 53 1022.6
20190324184541 76 103 4.0 11.0 0.00 0.00 0.00 54 1023.0
20190324183030 76 136 5.0 10.0 0.00 0.00 0.00 53 1023.3
20190324181558 76 106 6.0 10.0 0.00 0.00 0.00 53 1023.3
20190324180113 76 195 6.0 11.0 0.00 0.00 0.00 54 1023.4
20190324174548 76 180 7.0 13.0 0.00 0.00 0.00 56 1023.6
20190324173040 76 113 6.0 14.0 0.00 0.00 0.00 54 1023.8
20190324171547 75 159 5.0 13.0 0.00 0.00 0.00 56 1024.2
20190324170059 74 102 6.0 17.0 0.00 0.00 0.00 57 1024.5
20190324164550 75 142 6.0 15.0 0.00 0.00 0.00 56 1024.6
20190324163032 74 117 5.0 16.0 0.00 0.00 0.00 59 1024.7
20190324161549 73 155 6.0 17.0 0.00 0.00 0.00 59 1024.9
20190324160021 74 134 7.0 13.0 0.00 0.00 0.00 59 1024.9
20190324154518 72 131 7.0 13.0 0.00 0.00 0.00 61 1024.8
20190324153017 72 108 5.0 14.0 0.00 0.00 0.00 60 1024.8
20190324151539 71 82 8.0 15.0 0.00 0.00 0.00 62 1024.6
20190324150020 72 181 5.0 10.0 0.00 0.00 0.00 63 1024.7
20190324143001 68 98 3.0 7.0 0.00 0.00 0.00 69 1024.8
20190324141657 67 72 2.0 10.0 0.00 0.00 0.00 71 1024.8
20190324140230 65 89 5.0 10.0 0.00 0.00 0.00 72 1024.8
20190324134627 64 92 3.0 9.0 0.00 0.00 0.00 74 1024.7
20190324133114 63 94 1.0 8.0 0.00 0.00 0.00 77 1024.8
20190324131633 61 91 3.0 6.0 0.00 0.00 0.00 79 1024.7
20190324130152 60 85 3.0 7.0 0.00 0.00 0.00 79 1024.5
20190324124628 59 80 4.0 8.0 0.00 0.00 0.00 79 1024.5
20190324123108 58 79 3.0 5.0 0.00 0.00 0.00 80 1024.3
20190324121606 57 79 2.0 5.0 0.00 0.00 0.00 80 1024.3
20190324120112 56 79 1.0 3.0 0.00 0.00 0.00 81 1024.3
20190324114602 56 72 1.0 2.0 0.00 0.00 0.00 81 1024.2
20190324113048 56 60 1.0 3.0 0.00 0.00 0.00 80 1024.0
20190324111610 56 50 1.0 3.0 0.00 0.00 0.00 81 1024.0
20190324110114 56 56 0.0 3.0 0.00 0.00 0.00 83 1024.1
20190324104614 56 72 1.0 4.0 0.00 0.00 0.00 83 1023.8
20190324103053 56 37 1.0 3.0 0.00 0.00 0.00 84 1023.6
20190324101559 56 62 1.0 2.0 0.00 0.00 0.00 81 1023.5
20190324100038 57 62 0.0 3.0 0.00 0.00 0.00 80 1023.3
20190324094553 57 63 1.0 4.0 0.00 0.00 0.00 78 1023.2
20190324093055 58 81 2.0 4.0 0.00 0.00 0.00 78 1023.3
20190324091626 58 75 2.0 4.0 0.00 0.00 0.00 78 1023.0
20190324090031 58 98 1.0 3.0 0.00 0.00 0.00 78 1023.0
20190324084531 58 77 1.0 5.0 0.00 0.00 0.00 77 1022.8
20190324083028 58 75 2.0 6.0 0.00 0.00 0.00 77 1022.7
20190324081543 58 75 3.0 8.0 0.00 0.00 0.00 76 1022.6
20190324080022 59 82 3.0 8.0 0.00 0.00 0.00 74 1022.8
20190324074525 58 85 4.0 9.0 0.00 0.00 0.00 74 1022.9
20190324073042 58 92 3.0 7.0 0.00 0.00 0.00 74 1022.9
20190324071554 58 71 2.0 5.0 0.00 0.00 0.00 76 1023.1
20190324070021 57 82 1.0 3.0 0.00 0.00 0.00 78 1023.1
20190324064535 57 92 0.0 2.0 0.00 0.00 0.00 80 1023.6
20190324063022 57 82 1.0 2.0 0.00 0.00 0.00 79 1023.5
20190324061606 57 94 1.0 2.0 0.00 0.00 0.00 79 1023.8
20190324060020 57 93 1.0 3.0 0.00 0.00 0.00 80 1024.0
20190324054524 56 86 0.0 2.0 0.00 0.00 0.00 81 1024.1
20190324053015 57 103 0.0 2.0 0.00 0.00 0.00 81 1023.8
20190324051509 57 101 0.0 0.0 0.00 0.00 0.00 80 1023.9
20190324050011 58 101 0.0 1.0 0.00 0.00 0.00 78 1024.1
20190324044503 58 101 0.0 1.0 0.00 0.00 0.00 77 1024.2
20190324043248 58 101 0.0 2.0 0.00 0.00 0.00 76 1024.3
20190324041708 58 69 0.0 1.0 0.00 0.00 0.00 75 1024.2
20190324040147 59 72 1.0 3.0 0.00 0.00 0.00 74 1024.1
20190324034705 60 86 0.0 2.0 0.00 0.00 0.00 71 1024.2
20190324033222 60 81 1.0 5.0 0.00 0.00 0.00 70 1024.2
20190324031704 61 89 2.0 6.0 0.00 0.00 0.00 69 1024.2
20190324030201 62 71 4.0 10.0 0.00 0.00 0.00 67 1024.0
20190324024741 62 72 5.0 9.0 0.00 0.00 0.00 66 1024.0
20190324023125 63 70 5.0 10.0 0.00 0.00 0.00 66 1023.8
20190324021618 64 67 6.0 10.0 0.00 0.00 0.00 65 1023.7
20190324020116 64 71 6.0 10.0 0.00 0.00 0.00 64 1023.5
20190324014733 65 93 5.0 10.0 0.00 0.00 0.00 63 1023.4
20190324013128 65 98 4.0 8.0 0.00 0.00 0.00 63 1023.1
20190324011619 66 84 4.0 8.0 0.00 0.00 0.00 61 1022.9
20190324010146 66 68 4.0 7.0 0.00 0.00 0.00 58 1022.7
20190324004603 66 70 2.0 9.0 0.00 0.00 0.00 51 1022.5
20190324003156 68 155 0.0 2.0 0.00 0.00 0.00 42 1022.3
20190324001648 70 155 0.0 1.0 0.00 0.00 0.00 39 1022.2
20190324000206 72 155 0.0 1.0 0.00 0.00 0.00 36 1022.0
20190323234620 74 155 0.0 2.0 0.00 0.00 0.00 33 1022.0
20190323233104 75 172 1.0 3.0 0.00 0.00 0.00 31 1021.8
20190323231607 76 175 3.0 6.0 0.00 0.00 0.00 28 1021.8
20190323230123 76 156 2.0 5.0 0.00 0.00 0.00 28 1021.7
20190323224624 77 141 1.0 6.0 0.00 0.00 0.00 27 1021.6
20190323223107 77 115 2.0 6.0 0.00 0.00 0.00 28 1021.5
20190323221616 77 98 3.0 6.0 0.00 0.00 0.00 28 1021.2
20190323220119 77 75 2.0 10.0 0.00 0.00 0.00 28 1021.3